Time,TemperatureF,DewpointF,PressureIn,WindDirection,WindDirectionDegrees,WindSpeedMPH,WindSpeedGustMPH,Humidity,HourlyPrecipIn,Conditions,Clouds,dailyrainin,SoftwareType,DateUTC
2013-07-12 00:02:00,59.0,40.0,29.99,North,0,0.0,0.0,49,0.00,,,0.00,WUHU216HW,2013-07-12 07:02:00,
2013-07-12 00:07:00,58.7,40.1,29.99,North,0,0.0,0.0,50,0.00,,,0.00,WUHU216HW,2013-07-12 07:07:00,
2013-07-12 00:12:00,58.5,40.1,30.00,North,0,0.0,0.0,50,0.00,,,0.00,WUHU216HW,2013-07-12 07:12:00,
2013-07-12 00:17:00,58.3,39.9,30.00,North,0,0.0,0.0,50,0.00,,,0.00,WUHU216HW,2013-07-12 07:17:00,
2013-07-12 00:22:00,58.0,39.5,30.00,North,0,0.0,0.0,50,0.00,,,0.00,WUHU216HW,2013-07-12 07:22:00,
2013-07-12 00:27:00,58.0,40.0,30.00,North,0,0.0,0.0,51,0.00,,,0.00,WUHU216HW,2013-07-12 07:27:00,
2013-07-12 00:32:00,57.8,39.9,30.00,North,0,0.0,0.0,51,0.00,,,0.00,WUHU216HW,2013-07-12 07:32:00,
2013-07-12 00:37:00,57.8,39.3,30.00,North,0,0.0,0.0,50,0.00,,,0.00,WUHU216HW,2013-07-12 07:37:00,
2013-07-12 00:42:00,57.6,39.3,30.00,North,0,0.0,0.0,50,0.00,,,0.00,WUHU216HW,2013-07-12 07:42:00,
2013-07-12 00:47:00,57.4,39.1,30.00,North,0,0.0,0.0,50,0.00,,,0.00,WUHU216HW,2013-07-12 07:47:00,
2013-07-12 00:52:00,57.2,39.3,30.00,North,0,0.0,0.0,51,0.00,,,0.00,WUHU216HW,2013-07-12 07:52:00,
2013-07-12 00:57:00,57.2,38.9,29.99,North,0,0.0,0.0,50,0.00,,,0.00,WUHU216HW,2013-07-12 07:57:00,
2013-07-12 01:02:00,57.2,38.4,30.00,North,0,0.0,0.0,49,0.00,,,0.00,WUHU216HW,2013-07-12 08:02:00,
2013-07-12 01:07:00,57.1,37.5,29.99,North,0,0.0,0.0,48,0.00,,,0.00,WUHU216HW,2013-07-12 08:07:00,
2013-07-12 01:12:00,57.1,35.8,29.99,North,0,0.0,0.0,45,0.00,,,0.00,WUHU216HW,2013-07-12 08:12:00,
2013-07-12 01:17:00,56.9,35.1,29.99,North,0,0.0,0.0,44,0.00,,,0.00,WUHU216HW,2013-07-12 08:17:00,
2013-07-12 01:22:00,56.7,34.4,29.99,North,0,0.0,0.0,43,0.00,,,0.00,WUHU216HW,2013-07-12 08:22:00,
2013-07-12 01:27:00,56.7,35.5,29.99,North,0,0.0,0.0,45,0.00,,,0.00,WUHU216HW,2013-07-12 08:27:00,
2013-07-12 01:32:00,55.8,35.7,29.99,North,0,0.0,0.0,47,0.00,,,0.00,WUHU216HW,2013-07-12 08:32:00,
2013-07-12 01:37:00,54.9,36.6,29.99,North,0,0.0,0.0,50,0.00,,,0.00,WUHU216HW,2013-07-12 08:37:00,
2013-07-12 01:42:00,54.4,36.1,29.99,North,0,0.0,0.0,50,0.00,,,0.00,WUHU216HW,2013-07-12 08:42:00,
2013-07-12 01:47:00,54.4,36.1,29.99,North,0,0.0,0.0,50,0.00,,,0.00,WUHU216HW,2013-07-12 08:47:00,
2013-07-12 01:52:00,54.4,35.6,29.99,North,0,0.0,0.0,49,0.00,,,0.00,WUHU216HW,2013-07-12 08:52:00,
2013-07-12 01:57:00,54.4,36.1,29.99,North,0,0.0,0.0,50,0.00,,,0.00,WUHU216HW,2013-07-12 08:57:00,
2013-07-12 02:02:00,54.7,36.5,29.99,North,0,0.0,0.0,50,0.00,,,0.00,WUHU216HW,2013-07-12 09:02:00,
2013-07-12 02:07:00,54.7,36.9,29.99,North,0,0.0,0.0,51,0.00,,,0.00,WUHU216HW,2013-07-12 09:07:00,
2013-07-12 02:12:00,54.4,36.5,29.98,North,0,0.0,0.0,51,0.00,,,0.00,WUHU216HW,2013-07-12 09:12:00,
2013-07-12 02:17:00,53.3,36.6,29.99,North,0,0.0,0.0,53,0.00,,,0.00,WUHU216HW,2013-07-12 09:17:00,
2013-07-12 02:22:00,52.7,36.9,29.99,North,0,0.0,0.0,55,0.00,,,0.00,WUHU216HW,2013-07-12 09:22:00,
2013-07-12 02:27:00,52.4,36.6,29.98,North,0,0.0,0.0,55,0.00,,,0.00,WUHU216HW,2013-07-12 09:27:00,
2013-07-12 02:32:00,52.6,36.8,29.99,North,0,0.0,0.0,55,0.00,,,0.00,WUHU216HW,2013-07-12 09:32:00,
2013-07-12 02:37:00,52.7,36.9,29.99,North,0,0.0,0.0,55,0.00,,,0.00,WUHU216HW,2013-07-12 09:37:00,
2013-07-12 02:42:00,52.9,37.1,29.99,North,0,0.0,0.0,55,0.00,,,0.00,WUHU216HW,2013-07-12 09:42:00,
2013-07-12 02:48:00,53.1,37.3,29.99,North,0,0.0,0.0,55,0.00,,,0.00,WUHU216HW,2013-07-12 09:48:00,
2013-07-12 02:53:00,53.1,37.3,29.99,North,0,0.0,0.0,55,0.00,,,0.00,WUHU216HW,2013-07-12 09:53:00,
2013-07-12 02:58:00,53.1,37.7,29.99,North,0,0.0,0.0,56,0.00,,,0.00,WUHU216HW,2013-07-12 09:58:00,
2013-07-12 03:03:00,53.3,38.4,29.99,North,0,0.0,0.0,57,0.00,,,0.00,WUHU216HW,2013-07-12 10:03:00,
2013-07-12 03:08:00,53.3,38.4,29.99,North,0,0.0,0.0,57,0.00,,,0.00,WUHU216HW,2013-07-12 10:08:00,
2013-07-12 03:13:00,53.3,38.9,29.99,North,0,0.0,0.0,58,0.00,,,0.00,WUHU216HW,2013-07-12 10:13:00,
2013-07-12 03:18:00,53.1,39.2,29.98,North,0,0.0,0.0,59,0.00,,,0.00,WUHU216HW,2013-07-12 10:18:00,
2013-07-12 03:23:00,52.9,38.5,29.98,North,0,0.0,0.0,58,0.00,,,0.00,WUHU216HW,2013-07-12 10:23:00,
2013-07-12 03:28:00,52.9,38.5,29.98,North,0,0.0,0.0,58,0.00,,,0.00,WUHU216HW,2013-07-12 10:28:00,
2013-07-12 03:33:00,52.9,38.5,29.98,North,0,0.0,0.0,58,0.00,,,0.00,WUHU216HW,2013-07-12 10:33:00,
2013-07-12 03:38:00,52.9,39.0,29.99,North,0,0.0,0.0,59,0.00,,,0.00,WUHU216HW,2013-07-12 10:38:00,
2013-07-12 03:43:00,52.7,38.8,29.99,North,0,0.0,0.0,59,0.00,,,0.00,WUHU216HW,2013-07-12 10:43:00,
2013-07-12 03:48:00,52.6,39.1,29.98,North,0,0.0,0.0,60,0.00,,,0.00,WUHU216HW,2013-07-12 10:48:00,
2013-07-12 03:53:00,52.7,38.8,29.99,North,0,0.0,0.0,59,0.00,,,0.00,WUHU216HW,2013-07-12 10:53:00,
2013-07-12 03:58:00,52.7,38.8,29.98,North,0,0.0,0.0,59,0.00,,,0.00,WUHU216HW,2013-07-12 10:58:00,
2013-07-12 04:03:00,52.6,38.6,29.98,North,0,0.0,0.0,59,0.00,,,0.00,WUHU216HW,2013-07-12 11:03:00,
2013-07-12 04:08:00,52.6,38.6,29.98,North,0,0.0,0.0,59,0.00,,,0.00,WUHU216HW,2013-07-12 11:08:00,
2013-07-12 04:13:00,52.4,38.4,29.98,North,0,0.0,0.0,59,0.00,,,0.00,WUHU216HW,2013-07-12 11:13:00,
2013-07-12 04:18:00,52.0,38.5,29.98,North,0,0.0,0.0,60,0.00,,,0.00,WUHU216HW,2013-07-12 11:18:00,
2013-07-12 04:23:00,51.7,38.2,29.98,North,0,0.0,0.0,60,0.00,,,0.00,WUHU216HW,2013-07-12 11:23:00,
2013-07-12 04:28:00,51.5,38.0,29.98,North,0,0.0,0.0,60,0.00,,,0.00,WUHU216HW,2013-07-12 11:28:00,
2013-07-12 04:33:00,51.1,38.9,29.98,North,0,0.0,0.0,63,0.00,,,0.00,WUHU216HW,2013-07-12 11:33:00,
2013-07-12 04:38:00,50.9,38.7,29.98,North,0,0.0,0.0,63,0.00,,,0.00,WUHU216HW,2013-07-12 11:38:00,
2013-07-12 04:43:00,50.9,38.3,29.98,North,0,0.0,0.0,62,0.00,,,0.00,WUHU216HW,2013-07-12 11:43:00,
2013-07-12 04:48:00,50.9,38.7,29.98,North,0,0.0,0.0,63,0.00,,,0.00,WUHU216HW,2013-07-12 11:48:00,
2013-07-12 04:53:00,50.8,38.6,29.98,North,0,0.0,0.0,63,0.00,,,0.00,WUHU216HW,2013-07-12 11:53:00,
2013-07-12 04:58:00,50.6,38.8,29.98,North,0,0.0,0.0,64,0.00,,,0.00,WUHU216HW,2013-07-12 11:58:00,
2013-07-12 05:03:00,50.6,38.8,29.98,North,0,0.0,0.0,64,0.00,,,0.00,WUHU216HW,2013-07-12 12:03:00,
2013-07-12 05:08:00,50.4,38.6,29.98,North,0,0.0,0.0,64,0.00,,,0.00,WUHU216HW,2013-07-12 12:08:00,
2013-07-12 05:13:00,50.2,38.4,29.98,North,0,0.0,0.0,64,0.00,,,0.00,WUHU216HW,2013-07-12 12:13:00,
2013-07-12 05:18:00,50.2,38.4,29.98,North,0,0.0,0.0,64,0.00,,,0.00,WUHU216HW,2013-07-12 12:18:00,
2013-07-12 05:23:00,50.4,38.3,29.98,North,0,0.0,0.0,63,0.00,,,0.00,WUHU216HW,2013-07-12 12:23:00,
2013-07-12 05:28:00,50.0,38.4,29.98,North,0,0.0,0.0,64,0.00,,,0.00,WUHU216HW,2013-07-12 12:28:00,
2013-07-12 05:33:00,49.3,38.0,29.98,North,0,0.0,0.0,65,0.00,,,0.00,WUHU216HW,2013-07-12 12:33:00,
2013-07-12 05:38:00,49.1,37.4,29.98,North,0,0.0,0.0,64,0.00,,,0.00,WUHU216HW,2013-07-12 12:38:00,
2013-07-12 05:43:00,48.8,37.1,29.98,North,0,0.0,0.0,64,0.00,,,0.00,WUHU216HW,2013-07-12 12:43:00,
2013-07-12 05:48:00,48.6,37.0,29.98,North,0,0.0,0.0,64,0.00,,,0.00,WUHU216HW,2013-07-12 12:48:00,
2013-07-12 05:53:00,48.6,37.0,29.98,North,0,0.0,0.0,64,0.00,,,0.00,WUHU216HW,2013-07-12 12:53:00,
2013-07-12 05:58:00,48.6,37.0,29.98,North,0,0.0,0.0,64,0.00,,,0.00,WUHU216HW,2013-07-12 12:58:00,
2013-07-12 06:03:00,48.6,37.0,29.98,North,0,0.0,0.0,64,0.00,,,0.00,WUHU216HW,2013-07-12 13:03:00,
2013-07-12 06:08:00,48.6,37.7,29.98,North,0,0.0,0.0,66,0.00,,,0.00,WUHU216HW,2013-07-12 13:08:00,
2013-07-12 06:13:00,48.2,36.6,29.98,North,0,0.0,0.0,64,0.00,,,0.00,WUHU216HW,2013-07-12 13:13:00,
2013-07-12 06:18:00,48.1,36.5,29.98,North,0,0.0,0.0,64,0.00,,,0.00,WUHU216HW,2013-07-12 13:18:00,
2013-07-12 06:23:00,47.9,36.6,29.98,North,0,0.0,0.0,65,0.00,,,0.00,WUHU216HW,2013-07-12 13:23:00,
2013-07-12 06:28:00,47.9,37.5,29.98,North,0,0.0,0.0,67,0.00,,,0.00,WUHU216HW,2013-07-12 13:28:00,
2013-07-12 06:33:00,47.7,37.3,29.98,North,0,0.0,0.0,67,0.00,,,0.00,WUHU216HW,2013-07-12 13:33:00,
2013-07-12 06:38:00,47.7,38.0,29.98,North,0,0.0,0.0,69,0.00,,,0.00,WUHU216HW,2013-07-12 13:38:00,
2013-07-12 06:43:00,47.7,38.4,29.98,North,0,0.0,0.0,70,0.00,,,0.00,WUHU216HW,2013-07-12 13:43:00,
2013-07-12 06:48:00,47.7,37.6,29.98,North,0,0.0,0.0,68,0.00,,,0.00,WUHU216HW,2013-07-12 13:48:00,
2013-07-12 06:53:00,47.9,36.3,29.98,North,0,0.0,0.0,64,0.00,,,0.00,WUHU216HW,2013-07-12 13:53:00,
2013-07-12 06:58:00,48.1,36.1,29.98,North,0,0.0,0.0,63,0.00,,,0.00,WUHU216HW,2013-07-12 13:58:00,
2013-07-12 07:03:00,48.2,36.3,29.98,North,0,0.0,0.0,63,0.00,,,0.00,WUHU216HW,2013-07-12 14:03:00,
2013-07-12 07:08:00,48.4,36.0,29.98,North,0,0.0,0.0,62,0.00,,,0.00,WUHU216HW,2013-07-12 14:08:00,
2013-07-12 07:13:00,48.6,36.2,29.99,WSW,248,1.1,1.1,62,0.00,,,0.00,WUHU216HW,2013-07-12 14:13:00,
2013-07-12 07:18:00,48.8,36.4,29.98,WSW,248,0.4,1.3,62,0.00,,,0.00,WUHU216HW,2013-07-12 14:18:00,
2013-07-12 07:23:00,49.0,36.6,29.98,WSW,248,0.4,1.3,62,0.00,,,0.00,WUHU216HW,2013-07-12 14:23:00,
2013-07-12 07:28:00,49.1,36.7,29.98,West,270,1.1,1.1,62,0.00,,,0.00,WUHU216HW,2013-07-12 14:28:00,
2013-07-12 07:33:00,49.5,37.0,29.99,WNW,293,0.4,1.3,62,0.00,,,0.00,WUHU216HW,2013-07-12 14:33:00,
2013-07-12 07:38:00,49.7,36.8,29.99,WNW,293,2.0,2.0,61,0.00,,,0.00,WUHU216HW,2013-07-12 14:38:00,
2013-07-12 07:43:00,50.2,36.9,29.99,West,270,1.6,2.0,60,0.00,,,0.00,WUHU216HW,2013-07-12 14:43:00,
2013-07-12 07:48:00,50.6,36.7,29.98,WNW,293,1.3,2.0,59,0.00,,,0.00,WUHU216HW,2013-07-12 14:48:00,
2013-07-12 07:53:00,50.9,36.2,29.98,SW,225,0.4,2.0,57,0.00,,,0.00,WUHU216HW,2013-07-12 14:53:00,
2013-07-12 07:58:00,51.3,36.6,29.99,WSW,248,2.0,2.0,57,0.00,,,0.00,WUHU216HW,2013-07-12 14:58:00,
2013-07-12 08:04:00,51.7,36.4,29.98,WSW,248,1.1,2.9,56,0.00,,,0.00,WUHU216HW,2013-07-12 15:04:00,
2013-07-12 08:09:00,52.0,36.7,29.98,SSW,203,2.5,2.9,56,0.00,,,0.00,WUHU216HW,2013-07-12 15:09:00,
2013-07-12 08:14:00,52.6,35.8,29.98,SW,225,2.5,2.7,53,0.00,,,0.00,WUHU216HW,2013-07-12 15:14:00,
2013-07-12 08:19:00,52.9,36.6,29.98,ESE,113,0.4,2.7,54,0.00,,,0.00,WUHU216HW,2013-07-12 15:19:00,
2013-07-12 08:24:00,53.3,35.7,29.98,NNE,23,3.1,3.1,51,0.00,,,0.00,WUHU216HW,2013-07-12 15:24:00,
2013-07-12 08:29:00,53.6,35.9,29.98,NW,315,0.4,3.1,51,0.00,,,0.00,WUHU216HW,2013-07-12 15:29:00,
2013-07-12 08:34:00,54.0,35.8,29.98,NE,45,1.8,2.5,50,0.00,,,0.00,WUHU216HW,2013-07-12 15:34:00,
2013-07-12 08:39:00,54.4,35.6,29.98,WNW,293,2.2,2.5,49,0.00,,,0.00,WUHU216HW,2013-07-12 15:39:00,
2013-07-12 08:44:00,54.5,36.3,29.98,WNW,293,1.8,2.5,50,0.00,,,0.00,WUHU216HW,2013-07-12 15:44:00,
2013-07-12 08:49:00,54.9,36.6,29.98,East,90,0.4,4.0,50,0.00,,,0.00,WUHU216HW,2013-07-12 15:49:00,
2013-07-12 08:54:00,55.1,36.7,29.98,WSW,248,1.3,4.0,50,0.00,,,0.00,WUHU216HW,2013-07-12 15:54:00,
2013-07-12 08:59:00,55.4,37.1,29.97,South,180,0.7,2.0,50,0.00,,,0.00,WUHU216HW,2013-07-12 15:59:00,
2013-07-12 09:04:00,55.8,37.4,29.97,SW,225,2.7,4.0,50,0.00,,,0.00,WUHU216HW,2013-07-12 16:04:00,
2013-07-12 09:09:00,56.2,37.8,29.98,East,90,2.7,4.0,50,0.00,,,0.00,WUHU216HW,2013-07-12 16:09:00,
2013-07-12 09:14:00,56.5,37.6,29.98,WNW,293,2.2,2.7,49,0.00,,,0.00,WUHU216HW,2013-07-12 16:14:00,
2013-07-12 09:19:00,56.7,37.8,29.97,NNE,23,0.9,2.5,49,0.00,,,0.00,WUHU216HW,2013-07-12 16:19:00,
2013-07-12 09:24:00,57.1,38.7,29.97,WSW,248,1.3,2.5,50,0.00,,,0.00,WUHU216HW,2013-07-12 16:24:00,
2013-07-12 09:29:00,57.4,38.4,29.97,WNW,293,0.0,2.7,49,0.00,,,0.00,WUHU216HW,2013-07-12 16:29:00,
2013-07-12 09:34:00,58.0,39.0,29.97,SW,225,1.3,5.1,49,0.00,,,0.00,WUHU216HW,2013-07-12 16:34:00,
2013-07-12 09:39:00,58.3,38.7,29.97,WNW,293,1.1,5.1,48,0.00,,,0.00,WUHU216HW,2013-07-12 16:39:00,
2013-07-12 09:44:00,58.7,39.1,29.97,NW,315,4.5,4.5,48,0.00,,,0.00,WUHU216HW,2013-07-12 16:44:00,
2013-07-12 09:49:00,58.9,38.6,29.98,NW,315,0.4,4.5,47,0.00,,,0.00,WUHU216HW,2013-07-12 16:49:00,
2013-07-12 09:54:00,59.0,39.3,29.98,WNW,293,0.4,4.5,48,0.00,,,0.00,WUHU216HW,2013-07-12 16:54:00,
2013-07-12 09:59:00,59.4,39.7,29.97,SSW,203,0.7,1.8,48,0.00,,,0.00,WUHU216HW,2013-07-12 16:59:00,
2013-07-12 10:04:00,59.9,39.6,29.98,NNW,338,1.1,2.5,47,0.00,,,0.00,WUHU216HW,2013-07-12 17:04:00,
2013-07-12 10:09:00,60.1,39.2,29.97,West,270,2.9,2.9,46,0.00,,,0.00,WUHU216HW,2013-07-12 17:09:00,
2013-07-12 10:14:00,60.7,39.1,29.97,WNW,293,2.7,3.8,45,0.00,,,0.00,WUHU216HW,2013-07-12 17:14:00,
2013-07-12 10:19:00,61.2,39.6,29.97,WSW,248,4.3,4.3,45,0.00,,,0.00,WUHU216HW,2013-07-12 17:19:00,
2013-07-12 10:24:00,61.6,38.2,29.97,NW,315,4.5,5.1,42,0.00,,,0.00,WUHU216HW,2013-07-12 17:24:00,
2013-07-12 10:29:00,61.2,38.4,29.97,NNE,23,2.2,5.1,43,0.00,,,0.00,WUHU216HW,2013-07-12 17:29:00,
2013-07-12 10:34:00,61.6,39.3,29.97,NW,315,0.9,2.2,44,0.00,,,0.00,WUHU216HW,2013-07-12 17:34:00,
2013-07-12 10:40:00,61.9,40.2,29.97,East,90,1.3,2.2,45,0.00,,,0.00,WUHU216HW,2013-07-12 17:40:00,
2013-07-12 10:45:00,62.5,39.0,29.97,WNW,293,4.5,4.7,42,0.00,,,0.00,WUHU216HW,2013-07-12 17:45:00,
2013-07-12 10:50:00,62.8,37.5,29.97,SW,225,4.0,4.7,39,0.00,,,0.00,WUHU216HW,2013-07-12 17:50:00,
2013-07-12 10:55:00,63.2,37.7,29.97,WNW,293,0.4,6.9,39,0.00,,,0.00,WUHU216HW,2013-07-12 17:55:00,
2013-07-12 11:00:00,63.5,38.1,29.97,North,0,3.6,6.9,39,0.00,,,0.00,WUHU216HW,2013-07-12 18:00:00,
2013-07-12 11:05:00,63.7,38.3,29.96,NNW,338,4.5,4.5,39,0.00,,,0.00,WUHU216HW,2013-07-12 18:05:00,
2013-07-12 11:10:00,64.1,37.8,29.96,NNE,23,3.4,4.5,38,0.00,,,0.00,WUHU216HW,2013-07-12 18:10:00,
2013-07-12 11:15:00,64.4,38.2,29.96,WSW,248,1.3,3.4,38,0.00,,,0.00,WUHU216HW,2013-07-12 18:15:00,
2013-07-12 11:20:00,64.8,38.5,29.96,WSW,248,3.1,3.1,38,0.00,,,0.00,WUHU216HW,2013-07-12 18:20:00,
2013-07-12 11:25:00,65.3,39.0,29.96,SSW,203,2.5,3.1,38,0.00,,,0.00,WUHU216HW,2013-07-12 18:25:00,
2013-07-12 11:30:00,65.7,37.9,29.96,North,0,2.7,3.8,36,0.00,,,0.00,WUHU216HW,2013-07-12 18:30:00,
2013-07-12 11:35:00,66.1,39.6,29.96,SSE,158,1.6,3.8,38,0.00,,,0.00,WUHU216HW,2013-07-12 18:35:00,
2013-07-12 11:40:00,66.4,37.1,29.96,WNW,293,1.8,2.2,34,0.00,,,0.00,WUHU216HW,2013-07-12 18:40:00,
2013-07-12 11:45:00,66.6,36.5,29.96,West,270,0.9,2.9,33,0.00,,,0.00,WUHU216HW,2013-07-12 18:45:00,
2013-07-12 11:50:00,66.8,37.4,29.96,WNW,293,2.0,4.0,34,0.00,,,0.00,WUHU216HW,2013-07-12 18:50:00,
2013-07-12 11:55:00,67.1,39.2,29.96,NNE,23,1.3,4.0,36,0.00,,,0.00,WUHU216HW,2013-07-12 18:55:00,
2013-07-12 12:00:00,67.5,38.0,29.96,NE,45,4.5,4.5,34,0.00,,,0.00,WUHU216HW,2013-07-12 19:00:00,
2013-07-12 12:05:00,67.7,38.1,29.96,SSW,203,1.6,5.8,34,0.00,,,0.00,WUHU216HW,2013-07-12 19:05:00,
2013-07-12 12:10:00,68.0,39.2,29.96,ESE,113,2.2,5.8,35,0.00,,,0.00,WUHU216HW,2013-07-12 19:10:00,
2013-07-12 12:15:00,68.9,39.3,29.96,North,0,3.6,5.4,34,0.00,,,0.00,WUHU216HW,2013-07-12 19:15:00,
2013-07-12 12:20:00,68.8,38.4,29.96,North,0,5.4,9.2,33,0.00,,,0.00,WUHU216HW,2013-07-12 19:20:00,
2013-07-12 12:25:00,68.8,36.1,29.96,WNW,293,2.5,9.2,30,0.00,,,0.00,WUHU216HW,2013-07-12 19:25:00,
2013-07-12 12:30:00,68.9,38.5,29.96,SE,135,2.5,7.8,33,0.00,,,0.00,WUHU216HW,2013-07-12 19:30:00,
2013-07-12 12:35:00,69.5,38.3,29.96,SSE,158,2.7,3.6,32,0.00,,,0.00,WUHU216HW,2013-07-12 19:35:00,
2013-07-12 12:41:00,70.0,39.4,29.96,North,0,5.4,5.4,33,0.00,,,0.00,WUHU216HW,2013-07-12 19:41:00,
2013-07-12 12:46:00,70.2,36.4,29.96,North,0,4.3,5.4,29,0.00,,,0.00,WUHU216HW,2013-07-12 19:46:00,
2013-07-12 12:51:00,70.2,35.4,29.96,WNW,293,4.7,4.7,28,0.00,,,0.00,WUHU216HW,2013-07-12 19:51:00,
2013-07-12 12:56:00,70.6,35.7,29.96,West,270,6.9,8.3,28,0.00,,,0.00,WUHU216HW,2013-07-12 19:56:00,
2013-07-12 13:01:00,71.1,37.2,29.96,WSW,248,1.8,8.3,29,0.00,,,0.00,WUHU216HW,2013-07-12 20:01:00,
2013-07-12 13:06:00,70.6,35.7,29.96,NE,45,1.1,6.0,28,0.00,,,0.00,WUHU216HW,2013-07-12 20:06:00,
2013-07-12 13:11:00,70.6,37.7,29.96,WSW,248,0.7,5.6,30,0.00,,,0.00,WUHU216HW,2013-07-12 20:11:00,
2013-07-12 13:16:00,71.1,38.3,29.96,ESE,113,2.5,5.8,30,0.00,,,0.00,WUHU216HW,2013-07-12 20:16:00,
2013-07-12 13:21:00,71.5,38.5,29.96,NNE,23,3.8,9.4,30,0.00,,,0.00,WUHU216HW,2013-07-12 20:21:00,
2013-07-12 13:26:00,71.5,38.5,29.95,WNW,293,1.1,9.4,30,0.00,,,0.00,WUHU216HW,2013-07-12 20:26:00,
2013-07-12 13:31:00,71.8,36.8,29.96,ENE,68,1.3,2.9,28,0.00,,,0.00,WUHU216HW,2013-07-12 20:31:00,
2013-07-12 13:36:00,71.8,33.8,29.95,North,0,4.0,4.5,25,0.00,,,0.00,WUHU216HW,2013-07-12 20:36:00,
2013-07-12 13:41:00,71.8,36.8,29.96,ESE,113,1.8,7.4,28,0.00,,,0.00,WUHU216HW,2013-07-12 20:41:00,
2013-07-12 13:46:00,72.0,34.9,29.96,West,270,4.3,7.4,26,0.00,,,0.00,WUHU216HW,2013-07-12 20:46:00,
2013-07-12 13:51:00,72.2,35.0,29.95,NNW,338,4.0,5.8,26,0.00,,,0.00,WUHU216HW,2013-07-12 20:51:00,
2013-07-12 13:56:00,71.8,31.7,29.96,WNW,293,5.6,5.8,23,0.00,,,0.00,WUHU216HW,2013-07-12 20:56:00,
2013-07-12 14:01:00,72.0,33.8,29.95,ESE,113,4.0,5.6,25,0.00,,,0.00,WUHU216HW,2013-07-12 21:01:00,
2013-07-12 14:06:00,72.5,33.3,29.95,NW,315,1.8,4.0,24,0.00,,,0.00,WUHU216HW,2013-07-12 21:06:00,
2013-07-12 14:11:00,72.5,32.3,29.95,SW,225,3.1,4.9,23,0.00,,,0.00,WUHU216HW,2013-07-12 21:11:00,
2013-07-12 14:16:00,72.7,31.4,29.96,NW,315,6.0,8.3,22,0.00,,,0.00,WUHU216HW,2013-07-12 21:16:00,
2013-07-12 14:21:00,73.1,33.8,29.96,NE,45,0.4,8.3,24,0.00,,,0.00,WUHU216HW,2013-07-12 21:21:00,
2013-07-12 14:26:00,73.1,32.8,29.95,NE,45,1.8,5.6,23,0.00,,,0.00,WUHU216HW,2013-07-12 21:26:00,
2013-07-12 14:31:00,73.1,32.8,29.96,NNE,23,4.5,6.0,23,0.00,,,0.00,WUHU216HW,2013-07-12 21:31:00,
2013-07-12 14:36:00,72.7,33.5,29.96,NE,45,2.5,6.0,24,0.00,,,0.00,WUHU216HW,2013-07-12 21:36:00,
2013-07-12 14:41:00,72.5,30.2,29.96,West,270,5.4,6.7,21,0.00,,,0.00,WUHU216HW,2013-07-12 21:41:00,
2013-07-12 14:46:00,72.0,31.9,29.96,NNE,23,2.5,6.7,23,0.00,,,0.00,WUHU216HW,2013-07-12 21:46:00,
2013-07-12 14:51:00,72.4,31.2,29.95,North,0,3.4,5.4,22,0.00,,,0.00,WUHU216HW,2013-07-12 21:51:00,
2013-07-12 14:56:00,72.9,30.6,29.95,WSW,248,2.2,5.4,21,0.00,,,0.00,WUHU216HW,2013-07-12 21:56:00,
2013-07-12 15:02:00,73.4,26.8,29.96,NNE,23,5.4,7.6,18,0.00,,,0.00,WUHU216HW,2013-07-12 22:02:00,
2013-07-12 15:07:00,73.4,31.1,29.96,NE,45,6.3,7.6,21,0.00,,,0.00,WUHU216HW,2013-07-12 22:07:00,
2013-07-12 15:12:00,73.3,25.0,29.95,NW,315,8.1,8.1,17,0.00,,,0.00,WUHU216HW,2013-07-12 22:12:00,
2013-07-12 15:17:00,73.4,26.8,29.96,NE,45,3.8,8.1,18,0.00,,,0.00,WUHU216HW,2013-07-12 22:17:00,
2013-07-12 15:22:00,73.6,30.3,29.96,ENE,68,2.9,6.7,20,0.00,,,0.00,WUHU216HW,2013-07-12 22:22:00,
2013-07-12 15:27:00,74.0,28.9,29.95,WSW,248,1.1,6.7,19,0.00,,,0.00,WUHU216HW,2013-07-12 22:27:00,
2013-07-12 15:32:00,74.5,29.3,29.96,NNE,23,6.9,6.9,19,0.00,,,0.00,WUHU216HW,2013-07-12 22:32:00,
2013-07-12 15:37:00,74.3,31.8,29.95,NNE,23,3.8,6.9,21,0.00,,,0.00,WUHU216HW,2013-07-12 22:37:00,
2013-07-12 15:42:00,74.3,31.8,29.96,East,90,3.1,5.8,21,0.00,,,0.00,WUHU216HW,2013-07-12 22:42:00,
2013-07-12 15:47:00,74.7,32.1,29.95,NNW,338,4.7,5.8,21,0.00,,,0.00,WUHU216HW,2013-07-12 22:47:00,
2013-07-12 15:52:00,75.1,29.7,29.96,ENE,68,8.7,8.7,19,0.00,,,0.00,WUHU216HW,2013-07-12 22:52:00,
2013-07-12 15:57:00,75.1,28.1,29.96,NNE,23,2.0,8.7,18,0.00,,,0.00,WUHU216HW,2013-07-12 22:57:00,
2013-07-12 16:02:00,74.9,29.5,29.96,ESE,113,2.9,6.5,19,0.00,,,0.00,WUHU216HW,2013-07-12 23:02:00,
2013-07-12 16:07:00,74.9,27.9,29.96,SSE,158,5.6,6.3,18,0.00,,,0.00,WUHU216HW,2013-07-12 23:07:00,
2013-07-12 16:12:00,74.7,27.8,29.96,SE,135,7.4,7.8,18,0.00,,,0.00,WUHU216HW,2013-07-12 23:12:00,
2013-07-12 16:17:00,74.9,31.2,29.96,NNW,338,1.8,8.3,20,0.00,,,0.00,WUHU216HW,2013-07-12 23:17:00,
2013-07-12 16:22:00,75.1,29.7,29.96,NW,315,2.2,8.3,19,0.00,,,0.00,WUHU216HW,2013-07-12 23:22:00,
2013-07-12 16:27:00,75.2,29.9,29.96,NE,45,5.8,7.8,19,0.00,,,0.00,WUHU216HW,2013-07-12 23:27:00,
2013-07-12 16:32:00,76.0,30.4,29.96,SSE,158,2.2,7.8,19,0.00,,,0.00,WUHU216HW,2013-07-12 23:32:00,
2013-07-12 16:37:00,75.6,28.4,29.96,NW,315,3.4,8.9,18,0.00,,,0.00,WUHU216HW,2013-07-12 23:37:00,
2013-07-12 16:42:00,76.7,33.7,29.96,WSW,248,4.0,8.9,21,0.00,,,0.00,WUHU216HW,2013-07-12 23:42:00,
2013-07-12 16:47:00,79.4,37.0,29.96,SSW,203,4.5,7.6,22,0.00,,,0.00,WUHU216HW,2013-07-12 23:47:00,
2013-07-12 16:52:00,81.5,37.8,29.96,SSW,203,12.5,12.5,21,0.00,,,0.00,WUHU216HW,2013-07-12 23:52:00,
2013-07-12 16:58:00,82.4,34.0,29.96,SW,225,8.1,12.5,18,0.00,,,0.00,WUHU216HW,2013-07-12 23:58:00,
2013-07-12 17:03:00,83.7,36.7,29.96,West,270,2.5,8.1,19,0.00,,,0.00,WUHU216HW,2013-07-13 00:03:00,
2013-07-12 17:08:00,84.4,37.4,29.96,SSW,203,7.2,8.3,19,0.00,,,0.00,WUHU216HW,2013-07-13 00:08:00,
2013-07-12 17:13:00,84.6,37.4,29.96,SW,225,8.5,15.0,19,0.00,,,0.00,WUHU216HW,2013-07-13 00:13:00,
2013-07-12 17:18:00,82.4,38.5,29.96,WSW,248,9.2,15.0,21,0.00,,,0.00,WUHU216HW,2013-07-13 00:18:00,
2013-07-12 17:23:00,81.9,38.1,29.96,West,270,9.8,12.8,21,0.00,,,0.00,WUHU216HW,2013-07-13 00:23:00,
2013-07-12 17:28:00,80.6,38.1,29.96,South,180,5.6,12.8,22,0.00,,,0.00,WUHU216HW,2013-07-13 00:28:00,
2013-07-12 17:33:00,80.5,37.9,29.97,SW,225,7.2,14.3,22,0.00,,,0.00,WUHU216HW,2013-07-13 00:33:00,
2013-07-12 17:38:00,80.6,38.1,29.97,SW,225,5.4,14.3,22,0.00,,,0.00,WUHU216HW,2013-07-13 00:38:00,
2013-07-12 17:43:00,80.6,38.1,29.97,West,270,8.1,8.1,22,0.00,,,0.00,WUHU216HW,2013-07-13 00:43:00,
2013-07-12 17:48:00,80.1,38.6,29.97,SW,225,8.5,8.7,23,0.00,,,0.00,WUHU216HW,2013-07-13 00:48:00,
2013-07-12 17:53:00,79.2,37.8,29.97,SSE,158,3.6,8.7,23,0.00,,,0.00,WUHU216HW,2013-07-13 00:53:00,
2013-07-12 17:58:00,77.4,36.4,29.97,West,270,5.1,8.3,23,0.00,,,0.00,WUHU216HW,2013-07-13 00:58:00,
2013-07-12 18:03:00,76.1,36.4,29.97,SW,225,6.3,8.3,24,0.00,,,0.00,WUHU216HW,2013-07-13 01:03:00,
2013-07-12 18:08:00,75.4,36.8,29.97,WSW,248,1.8,6.7,25,0.00,,,0.00,WUHU216HW,2013-07-13 01:08:00,
2013-07-12 18:13:00,74.9,36.4,29.97,WSW,248,10.3,11.4,25,0.00,,,0.00,WUHU216HW,2013-07-13 01:13:00,
2013-07-12 18:18:00,74.5,36.0,29.97,WSW,248,5.6,11.4,25,0.00,,,0.00,WUHU216HW,2013-07-13 01:18:00,
2013-07-12 18:23:00,74.2,36.7,29.98,WSW,248,5.1,6.9,26,0.00,,,0.00,WUHU216HW,2013-07-13 01:23:00,
2013-07-12 18:28:00,73.8,36.5,29.98,WSW,248,5.4,9.2,26,0.00,,,0.00,WUHU216HW,2013-07-13 01:28:00,
2013-07-12 18:33:00,73.1,35.8,29.98,West,270,6.7,9.2,26,0.00,,,0.00,WUHU216HW,2013-07-13 01:33:00,
2013-07-12 18:38:00,72.4,35.2,29.98,NW,315,6.3,6.9,26,0.00,,,0.00,WUHU216HW,2013-07-13 01:38:00,
2013-07-12 18:43:00,71.3,35.3,29.98,ESE,113,4.0,7.6,27,0.00,,,0.00,WUHU216HW,2013-07-13 01:43:00,
2013-07-12 18:48:00,71.3,36.4,29.98,NW,315,3.8,7.6,28,0.00,,,0.00,WUHU216HW,2013-07-13 01:48:00,
2013-07-12 18:53:00,71.1,36.2,29.98,West,270,3.4,6.7,28,0.00,,,0.00,WUHU216HW,2013-07-13 01:53:00,
2013-07-12 18:58:00,71.6,36.6,29.99,WSW,248,6.3,6.7,28,0.00,,,0.00,WUHU216HW,2013-07-13 01:58:00,
2013-07-12 19:03:00,72.2,37.1,29.99,NW,315,5.8,6.7,28,0.00,,,0.00,WUHU216HW,2013-07-13 02:03:00,
2013-07-12 19:08:00,72.0,36.9,29.99,West,270,8.9,8.9,28,0.00,,,0.00,WUHU216HW,2013-07-13 02:08:00,
2013-07-12 19:14:00,71.6,36.6,29.99,WSW,248,6.5,9.2,28,0.00,,,0.00,WUHU216HW,2013-07-13 02:14:00,
2013-07-12 19:19:00,70.6,36.7,29.99,WNW,293,7.6,9.6,29,0.00,,,0.00,WUHU216HW,2013-07-13 02:19:00,
2013-07-12 19:24:00,69.8,36.1,29.99,WSW,248,8.1,9.6,29,0.00,,,0.00,WUHU216HW,2013-07-13 02:24:00,
2013-07-12 19:29:00,69.3,35.6,29.99,NW,315,5.4,8.3,29,0.00,,,0.00,WUHU216HW,2013-07-13 02:29:00,
2013-07-12 19:34:00,69.1,36.5,29.99,WSW,248,3.8,12.8,30,0.00,,,0.00,WUHU216HW,2013-07-13 02:34:00,
2013-07-12 19:39:00,68.9,36.3,30.00,SW,225,4.0,12.8,30,0.00,,,0.00,WUHU216HW,2013-07-13 02:39:00,
2013-07-12 19:44:00,68.8,36.1,30.00,WNW,293,6.3,6.3,30,0.00,,,0.00,WUHU216HW,2013-07-13 02:44:00,
2013-07-12 19:49:00,68.4,35.8,30.00,WSW,248,4.3,9.4,30,0.00,,,0.00,WUHU216HW,2013-07-13 02:49:00,
2013-07-12 19:54:00,68.0,35.5,30.00,West,270,4.9,9.4,30,0.00,,,0.00,WUHU216HW,2013-07-13 02:54:00,
2013-07-12 19:59:00,67.7,35.2,30.00,West,270,3.4,6.9,30,0.00,,,0.00,WUHU216HW,2013-07-13 02:59:00,
2013-07-12 20:04:00,67.1,34.7,30.00,WNW,293,6.9,12.8,30,0.00,,,0.00,WUHU216HW,2013-07-13 03:04:00,
2013-07-12 20:09:00,66.6,35.0,30.01,WNW,293,4.5,12.8,31,0.00,,,0.00,WUHU216HW,2013-07-13 03:09:00,
2013-07-12 20:14:00,66.1,34.6,30.01,West,270,11.4,11.4,31,0.00,,,0.00,WUHU216HW,2013-07-13 03:14:00,
2013-07-12 20:19:00,65.5,33.4,30.01,West,270,5.8,11.4,30,0.00,,,0.00,WUHU216HW,2013-07-13 03:19:00,
2013-07-12 20:24:00,65.2,33.8,30.01,WNW,293,6.3,8.1,31,0.00,,,0.00,WUHU216HW,2013-07-13 03:24:00,
2013-07-12 20:29:00,64.6,34.0,30.01,WSW,248,5.1,7.8,32,0.00,,,0.00,WUHU216HW,2013-07-13 03:29:00,
2013-07-12 20:34:00,63.9,33.4,30.02,NW,315,4.7,5.1,32,0.00,,,0.00,WUHU216HW,2013-07-13 03:34:00,
2013-07-12 20:39:00,63.4,35.7,30.01,NNW,338,3.8,5.1,36,0.00,,,0.00,WUHU216HW,2013-07-13 03:39:00,
2013-07-12 20:44:00,63.0,35.5,30.02,NNW,338,4.7,4.7,36,0.00,,,0.00,WUHU216HW,2013-07-13 03:44:00,
2013-07-12 20:49:00,62.3,34.7,30.02,NW,315,4.0,4.7,36,0.00,,,0.00,WUHU216HW,2013-07-13 03:49:00,
2013-07-12 20:54:00,62.5,34.9,30.02,North,0,0.0,4.5,36,0.00,,,0.00,WUHU216HW,2013-07-13 03:54:00,
2013-07-12 20:59:00,62.5,34.9,30.02,North,0,0.0,4.0,36,0.00,,,0.00,WUHU216HW,2013-07-13 03:59:00,
2013-07-12 21:01:00,62.3,34.7,30.02,North,0,0.0,0.0,36,0.00,,,0.00,WUHU216HW,2013-07-13 04:01:00,
2013-07-12 21:02:00,62.3,34.7,30.02,North,0,0.0,0.0,36,0.00,,,0.00,WUHU216HW,2013-07-13 04:02:00,
2013-07-12 21:07:00,62.3,34.7,30.02,North,0,0.0,0.0,36,0.00,,,0.00,WUHU216HW,2013-07-13 04:07:00,
2013-07-12 21:12:00,62.5,34.9,30.03,North,0,0.0,0.0,36,0.00,,,0.00,WUHU216HW,2013-07-13 04:12:00,
2013-07-12 21:17:00,62.3,34.7,30.03,North,0,0.0,0.0,36,0.00,,,0.00,WUHU216HW,2013-07-13 04:17:00,
2013-07-12 21:22:00,62.1,34.7,30.03,North,0,0.0,0.0,36,0.00,,,0.00,WUHU216HW,2013-07-13 04:22:00,
2013-07-12 21:27:00,61.9,34.5,30.03,North,0,0.0,0.0,36,0.00,,,0.00,WUHU216HW,2013-07-13 04:27:00,
2013-07-12 21:32:00,61.7,34.3,30.03,North,0,0.0,0.0,36,0.00,,,0.00,WUHU216HW,2013-07-13 04:32:00,
2013-07-12 21:37:00,61.4,33.2,30.04,North,0,0.0,0.0,35,0.00,,,0.00,WUHU216HW,2013-07-13 04:37:00,
2013-07-12 21:43:00,61.0,33.0,30.04,North,0,0.0,0.0,35,0.00,,,0.00,WUHU216HW,2013-07-13 04:43:00,
2013-07-12 21:48:00,60.8,32.8,30.04,North,0,0.0,0.0,35,0.00,,,0.00,WUHU216HW,2013-07-13 04:48:00,
2013-07-12 21:53:00,60.5,33.2,30.04,North,0,0.0,0.0,36,0.00,,,0.00,WUHU216HW,2013-07-13 04:53:00,
2013-07-12 21:58:00,60.1,32.9,30.04,North,0,0.0,0.0,36,0.00,,,0.00,WUHU216HW,2013-07-13 04:58:00,
2013-07-12 22:03:00,59.8,32.6,30.04,North,0,0.0,0.0,36,0.00,,,0.00,WUHU216HW,2013-07-13 05:03:00,
2013-07-12 22:08:00,59.4,32.2,30.04,North,0,0.0,0.0,36,0.00,,,0.00,WUHU216HW,2013-07-13 05:08:00,
2013-07-12 22:13:00,58.7,32.3,30.04,North,0,0.0,0.0,37,0.00,,,0.00,WUHU216HW,2013-07-13 05:13:00,
2013-07-12 22:18:00,58.7,33.0,30.04,North,0,0.0,0.0,38,0.00,,,0.00,WUHU216HW,2013-07-13 05:18:00,
2013-07-12 22:23:00,58.5,32.9,30.04,North,0,0.0,0.0,38,0.00,,,0.00,WUHU216HW,2013-07-13 05:23:00,
2013-07-12 22:28:00,58.0,33.0,30.04,North,0,0.0,0.0,39,0.00,,,0.00,WUHU216HW,2013-07-13 05:28:00,
2013-07-12 22:33:00,57.8,33.0,30.04,North,0,0.0,0.0,39,0.00,,,0.00,WUHU216HW,2013-07-13 05:33:00,
2013-07-12 22:38:00,57.8,33.0,30.05,North,0,0.0,0.0,39,0.00,,,0.00,WUHU216HW,2013-07-13 05:38:00,
2013-07-12 22:43:00,57.8,33.6,30.05,North,0,0.0,0.0,40,0.00,,,0.00,WUHU216HW,2013-07-13 05:43:00,
2013-07-12 22:48:00,57.4,33.3,30.05,North,0,0.0,0.0,40,0.00,,,0.00,WUHU216HW,2013-07-13 05:48:00,
2013-07-12 22:53:00,57.1,33.6,30.05,North,0,0.0,0.0,41,0.00,,,0.00,WUHU216HW,2013-07-13 05:53:00,
2013-07-12 22:58:00,57.1,33.6,30.05,North,0,0.0,0.0,41,0.00,,,0.00,WUHU216HW,2013-07-13 05:58:00,
2013-07-12 23:03:00,56.9,33.4,30.06,North,0,0.0,0.0,41,0.00,,,0.00,WUHU216HW,2013-07-13 06:03:00,
2013-07-12 23:08:00,56.9,33.4,30.06,North,0,0.0,0.0,41,0.00,,,0.00,WUHU216HW,2013-07-13 06:08:00,
2013-07-12 23:13:00,57.1,32.9,30.06,North,0,0.0,0.0,40,0.00,,,0.00,WUHU216HW,2013-07-13 06:13:00,
2013-07-12 23:18:00,56.9,33.4,30.07,North,0,0.0,0.0,41,0.00,,,0.00,WUHU216HW,2013-07-13 06:18:00,
2013-07-12 23:23:00,56.5,33.0,30.06,North,0,0.0,0.0,41,0.00,,,0.00,WUHU216HW,2013-07-13 06:23:00,
2013-07-12 23:28:00,56.2,33.8,30.07,North,0,0.0,0.0,43,0.00,,,0.00,WUHU216HW,2013-07-13 06:28:00,
2013-07-12 23:33:00,56.0,33.7,30.07,North,0,0.0,0.0,43,0.00,,,0.00,WUHU216HW,2013-07-13 06:33:00,
2013-07-12 23:38:00,55.8,33.5,30.07,North,0,0.0,0.0,43,0.00,,,0.00,WUHU216HW,2013-07-13 06:38:00,
2013-07-12 23:43:00,55.6,33.3,30.07,North,0,0.0,0.0,43,0.00,,,0.00,WUHU216HW,2013-07-13 06:43:00,
2013-07-12 23:48:00,55.6,33.3,30.07,North,0,0.0,0.0,43,0.00,,,0.00,WUHU216HW,2013-07-13 06:48:00,
2013-07-12 23:53:00,55.4,33.8,30.07,North,0,0.0,0.0,44,0.00,,,0.00,WUHU216HW,2013-07-13 06:53:00,
2013-07-12 23:58:00,55.4,33.2,30.07,North,0,0.0,0.0,43,0.00,,,0.00,WUHU216HW,2013-07-13 06:58:00,